STARLINK-1941

Last updated on Tue Nov 24 2020 00:02:03 GMT+0000 (Coordinated Universal Time)

1 46793U 20074BG 20328.58334491 -.00276113 00000-0 -30980-2 0 9998 2 46793 53.0548 13.4189 0001357 43.7443 23.6847 15.62877737 1850

Satellite not in orbit